This demonstration page uses our WeatherBlox Daily Observations layout. Learn more.

Left ArrowRight Arrow

Hourly Observations for December 11, 2019

Temp ( °F °C ) Dew Point ( °F °C ) Humidity (%) Winds ( mph kmh ) Pressure ( in mb ) Visibility ( mi km ) Precip ( " mm )
12:56 am 00:56 Mostly Cloudy 21 -6 12 -11 68 68 S 5 7 30.28 1026 10 16 0.00 0.00
1:56 am 01:56 Mostly Cloudy 30 -1 16 -9 55 55 W 8 13 30.29 1026 10 16 0.00 0.00
2:56 am 02:56 Clear 28 -2 16 -9 59 59 W 12 19 30.30 1026 10 16 0.00 0.00
3:56 am 03:56 Clear 27 -3 16 -9 64 64 WNW 9 15 30.32 1027 10 16 0.00 0.00
4:56 am 04:56 Clear 25 -4 16 -9 69 69 NW 5 7 30.34 1028 10 16 0.00 0.00
5:56 am 05:56 Clear 25 -4 18 -8 74 74 WSW 5 7 30.36 1028 10 16 0.00 0.00
6:56 am 06:56 Clear 23 -5 18 -8 80 80 NW 5 7 30.40 1030 10 16 0.00 0.00
7:56 am 07:56 Sunny 25 -4 18 -8 74 74 N 7 11 30.44 1031 10 16 0.00 0.00
8:56 am 08:56 Sunny 25 -4 16 -9 69 69 NNE 9 15 30.46 1032 10 16 0.00 0.00
9:56 am 09:56 undefined N/A N/A N/A NNE 10 17 N/A 10 16 0.00 0.00
10:56 am 10:56 Sunny 27 -3 14 -10 59 59 ENE 7 11 30.50 1033 10 16 0.00 0.00
11:56 am 11:56 Mostly Sunny 27 -3 14 -10 59 59 E 10 17 30.48 1032 10 16 0.00 0.00
12:56 pm 12:56 Mostly Sunny 28 -2 14 -10 55 55 E 9 15 30.45 1031 10 16 0.00 0.00
1:56 pm 13:56 Sunny 30 -1 14 -10 51 51 ESE 12 19 30.41 1030 10 16 0.00 0.00
2:56 pm 14:56 Sunny 32 0 16 -9 51 51 E 10 17 30.38 1029 10 16 0.00 0.00
3:56 pm 15:56 Mostly Cloudy 32 0 18 -8 55 55 E 10 17 30.37 1029 10 16 0.00 0.00
4:56 pm 16:56 Mostly Cloudy 32 0 19 -7 60 60 E 8 13 30.34 1027 10 16 0.00 0.00
5:56 pm 17:56 Mostly Cloudy 30 -1 19 -7 64 64 E 8 13 30.32 1027 10 16 0.00 0.00
6:56 pm 18:56 Mostly Cloudy 30 -1 19 -7 64 64 E 9 15 30.29 1026 10 16 0.00 0.00
7:56 pm 19:56 Mostly Cloudy 30 -1 21 -6 69 69 SE 10 17 30.27 1025 10 16 0.00 0.00
8:56 pm 20:56 undefined N/A N/A N/A SE 14 22 N/A N/A 0.00 0.00
9:56 pm 21:56 Partly Cloudy 30 -1 21 -6 69 69 ESE 15 24 30.19 1022 10 16 0.00 0.00
10:56 pm 22:56 Mostly Cloudy 32 0 23 -5 69 69 ESE 9 15 30.17 1022 10 16 0.00 0.00
11:56 pm 23:56 Mostly Cloudy 30 -1 23 -5 75 75 ESE 8 13 30.14 1021 10 16 0.00 0.00

Powered by AerisWeather